If you wish to contribute or participate in the discussions about articles you are invited to join SKYbrary as a registered user

 Actions

Akhiok Airport

From SKYbrary Wiki

PAKH
Airport
ICAO: PAKH – IATA: AKK
Summary
Name Akhiok Airport
Region North America
Territory Alaska US.gif
Location Akhiok, Alaska
Serving Akhiok
Elevation 13.411 m
44 ft
44 ft13.411 m
Type small airport
Coordinates 56° 56' 19.00" N, 154° 10' 57.00" W
Runways
Designator Length Width Surface ROPS
4/22 951 m3,120.079 ft
15 m49.213 ft
GRAVEL-G /


METAR
Observation PAKH 181156Z AUTO 22027G33KT OVC016 12/09 A2948 RMK AO2 PK WND 21034/1144 SLP983 60004 70049 T01220094 10133 20117 58010 PWINO $
Station AKHIOK
Date/Time 18 September 2019 11:56:00
Wind direction 220°
Wind speed 27 kts
Lowest cloud amount overcast
Temperature 12.2°C
Dew point 9.4°C
Humidity 83%
QNH hPa
Weather condition n/a

Maps

Terrain

Loading map...

Airport Layout

Loading map...


Accidents & Serious Incidents at or in vicinity of PAKH

None on SKYbrary